Overview Statistics Trail Chart Weather Telemetry Raw packets
 

This is the latest recevied weather packets stored in our database for station/object N0QWM. If no packets are shown the sender has not sent any weather packets the latest 10 day(s).

<< 68 69 70 71 72 73 74 >>
Time Temp. Humidity Pressure Rain* Wind** Luminosity Snow
1788195649 32.22° C 62% 1025.3 hPa 0 mm - 151 W/m² -
1788195349 32.78° C 64% 1025.5 hPa 0 mm - 519 W/m² -
1788195046 32.78° C 61% 1025.5 hPa 0 mm - 647 W/m² -
1788194742 33.33° C 64% 1025.6 hPa 0 mm - 593 W/m² -
1788194441 32.78° C 64% 1025.7 hPa 0 mm - 635 W/m² -
1788194132 31.67° C 67% 1025.6 hPa 0 mm - 688 W/m² -
1788193828 31.67° C 67% 1025.8 hPa 0 mm - 120 W/m² -
1788193526 32.22° C 66% 1025.7 hPa 0 mm - 743 W/m² -
1788193225 32.22° C 65% 1025.9 hPa 0 mm - 768 W/m² -
1788192921 32.22° C 67% 1025.8 hPa 0 mm - 750 W/m² -
1788192617 31.67° C 69% 1025.9 hPa 0 mm - 687 W/m² -
1788192316 31.11° C 69% 1026 hPa 0 mm - 700 W/m² -
1788192015 30.56° C 73% 1026 hPa 0 mm - 142 W/m² -
1788191706 30.56° C 72% 1026.2 hPa 0 mm - 783 W/m² -
1788191401 30° C 73% 1026.4 hPa 0 mm - 129 W/m² -
1788191098 30° C 73% 1026.1 hPa 0 mm - 134 W/m² -
1788190796 30.56° C 72% 1026.1 hPa 0 mm - 114 W/m² -
1788190492 31.67° C 70% 1026.2 hPa 0 mm - 557 W/m² -
1788190189 31.11° C 71% 1026.1 hPa 0 mm - 836 W/m² -
1788189883 30.56° C 73% 1026.2 hPa 0 mm - 803 W/m² -
1788189579 30.56° C 73% 1026 hPa 0 mm - 820 W/m² -
1788189278 31.67° C 72% 1026.2 hPa 0 mm - 763 W/m² -
1788188973 31.67° C 70% 1025.9 hPa 0 mm - 788 W/m² -
1788188673 31.11° C 73% 1026.1 hPa 0 mm - 779 W/m² -
1788188368 31.11° C 72% 1025.9 hPa 0 mm - 730 W/m² -

* Rain latest hour (hover to see other rain measurements)
** Current wind speed in m/s (hover to see current wind gust speed)